TEVEL2-5

Last updated on Mon Sep 15 2025 00:03:10 GMT+0000 (Coordinated Universal Time)

1 63214U 25052E 25257.27818483 .00009749 00000+0 41973-3 0 9997 2 63214 97.4173 149.9875 0004297 42.1931 317.9635 15.22802708 27956
UTC large
Height (km)
Speed (km/s)
/
Latitude / Longitude
Inclination (degrees)
Orbital Period (minutes)
Azimuth
Elevation
Range (km)
Doppler Factor

Next 0 passes for location: London (51.5072 / 0.1276)

Sorry there are no passes over London.